Hourly Data Report for June 13, 2021

GAMETI
NORTHWEST TERRITORIES
Current Station Operator: ECCC - MSC

64°06'42.078" N
117°19'40.086" W
221.00 m
2203359
71165
WYH

Download Data

Hourly Data (June 2021)
Hourly Data Report for June 13, 2021
TIME
LST
Temp Definition
°C
Dew Point Definition
°C
Rel Hum Definition
%
Precip. Amount Definition
mm

Wind Dir Definition
10's deg

Wind Spd Definition
km/h
Visibility Definition
km
Stn Press Definition
kPa
Hmdx Definition


Wind Chill Definition


Weather Definition


00:00 12.1 9.9 86 LegendMM 14 7   97.97     LegendNANA
01:00 11.7 8.9 83 LegendMM 16 4   97.98     LegendNANA
02:00 11.6 8.1 79 LegendMM 15 5   97.99     LegendNANA
03:00 10.7 7.3 80 LegendMM 18 6   98.05     LegendNANA
04:00 10.1 7.2 82 LegendMM 25 5   98.09     LegendNANA
05:00 10.9 8.2 83 LegendMM 17 6   98.10     LegendNANA
06:00 12.1 8.4 78 LegendMM 17 6   98.15     LegendNANA
07:00 12.1 8.7 80 LegendMM 18 4   98.16     LegendNANA
08:00 14.4 10.2 76 LegendMM 16 7   98.15     LegendNANA
09:00 15.2 9.8 70 LegendMM 15 8   98.15     LegendNANA
10:00 15.1 10.4 73 LegendMM 19 11   98.17     LegendNANA
11:00 16.1 10.4 69 LegendMM 18 13   98.16     LegendNANA
12:00 18.4 10.4 60 LegendMM 16 13   98.14     LegendNANA
13:00 18.7 9.6 55 LegendMM 16 13   98.13     LegendNANA
14:00 20.4 10.0 51 LegendMM 17 13   98.12     LegendNANA
15:00 20.9 9.2 47 LegendMM 17 16   98.11     LegendNANA
16:00 21.6 8.5 43 LegendMM 17 15   98.08     LegendNANA
17:00 20.8 8.8 46 LegendMM 17 17   98.08     LegendNANA
18:00 20.3 8.4 46 LegendMM 17 15   98.08     LegendNANA
19:00 18.9 8.1 49 LegendMM 18 11   98.11     LegendNANA
20:00 15.2 9.4 68 LegendMM 16 23   98.21     LegendNANA
21:00 14.2 12.0 87 LegendMM 35 10   98.26     LegendNANA
22:00 13.9 11.2 84 LegendMM 4 11   98.22     LegendNANA
23:00 11.7 10.4 92 LegendMM 35 8   98.29     LegendNANA

Notes on Data Quality.

Legend

  • E = Estimated
  • M = Missing
  • NA = Not Available*
  • [empty] = Indicates an unobserved value
Date modified: